Home   Weather   Goodyear   Past weeks
Flag for USA

Past Weather in Goodyear, Arizona, USA — Yesterday and Last 2 Weeks

Now
66 °F

Clear.


Feels Like: 66 °F
Forecast: 85 / 53 °F
Wind: 6 mph from North

Location: Luke Air Force Base / Phoenix

Current Time: Oct 21, 2019 at 12:47:40 am

Latest Report: Oct 20, 2019 at 11:58 pm


Visibility: 10 mi

Pressure: 29.88 "Hg

Humidity: 14%

Dew Point: 15 °F

Location of GoodyearLocation

Past Weather in Goodyear — Graph

°F

Goodyear Temperature Yesterday

Maximum temperature yesterday: 85 °F (at 2:58 pm)
Minimum temperature yesterday: 53 °F (at 6:58 am)
Average temperature yesterday: 70 °F

High & Low Weather Summary for the Past Weeks

 TemperatureHumidityPressure
High96 °F (Oct 16, 2:58 pm)59% (Oct 15, 5:58 am)30.02 "Hg (Oct 15, 5:58 am)
Low53 °F (Oct 20, 6:58 am)4% (Oct 11, 12:58 pm)29.56 "Hg (Oct 17, 5:58 pm)
Average75 °F26%29.81 "Hg
* Reported Oct 5 10:58 pm — Oct 20 10:58 pm, Goodyear. Weather by CustomWeather, © 2019

Note: Actual official high and low records may vary slightly from our data, if they occured in-between our weather recording intervals... More about our weather records

Advertising

Goodyear Weather History for the Previous 24 Hours

Scroll right to see more
 ConditionsComfort  
Time TempWeatherWind HumidityBarometerVisibility
10:58 pm
Sun, Oct 20
69 °FClear.10 mph10%29.87 "Hg10 mi
9:58 pm73 °FClear.16 mph7%29.84 "Hg10 mi
8:58 pm72 °FClear.13 mph8%29.81 "Hg10 mi
7:58 pm77 °FClear.10 mph6%29.81 "Hg10 mi
6:58 pm78 °FClear.8 mph11%29.80 "Hg10 mi
5:58 pm81 °FClear.10 mph13%29.78 "Hg10 mi
4:58 pm85 °FSunny.14 mph10%29.78 "Hg10 mi
3:58 pm85 °FSunny.8 mph10%29.78 "Hg10 mi
2:58 pm85 °FSunny.10 mph12%29.78 "Hg10 mi
1:58 pm83 °FSunny.6 mph13%29.80 "Hg10 mi
12:58 pm81 °FSunny.No wind13%29.83 "Hg10 mi
11:58 am78 °FSunny.3 mph14%29.85 "Hg10 mi
10:58 am74 °FSunny.No wind17%29.87 "Hg10 mi
9:58 am71 °FSunny.No wind22%29.88 "Hg10 mi
8:58 am67 °FSunny.3 mph28%29.87 "Hg10 mi
7:58 am60 °FSunny.5 mph36%29.85 "Hg10 mi
6:58 am53 °FSunny.6 mph42%29.81 "Hg10 mi
5:58 am54 °FClear.3 mph41%29.80 "Hg10 mi
4:58 am54 °FClear.5 mph42%29.79 "Hg10 mi
3:58 am55 °FClear.5 mph41%29.76 "Hg10 mi
2:58 am56 °FClear.6 mph37%29.76 "Hg10 mi
1:58 am58 °FClear.No wind34%29.76 "Hg10 mi
12:58 am60 °FClear.6 mph31%29.76 "Hg10 mi
Weather by CustomWeather, © 2019

See weather overview